Location: Newark
(33.6333°S, 78.8500°W)
Time: 15:56:09
(UTC+00:00)

Courier 1B - Pass Details

Date: 24 September 2019
Orbit: 962 x 1209 km, 28.3° (Epoch: 22 October)

Event Time Altitude Azimuth Distance (km) Brightness Sun altitude
Rises 19:44:28 0° 320° (NW) 4,099 11.6 40.6°
Reaches altitude 10° 19:47:51 10° 332° (NNW) 3,139 11.1 40.0°
Maximum altitude 19:54:05 26° 25° (NNE) 2,148 9.7 38.9°
Drops below altitude 10° 20:00:14 10° 78° (ENE) 3,087 9.9 37.8°
Sets 20:03:31 0° 89° (E) 4,019 10.3 37.2°
